Weather History for CXDK - May, 2013

Change the Weather History Date:

Saturday, May 18, 2013

  Actual Average Record
Temperature  
Mean Temperature 50 °F -  
Max Temperature 72 °F - - ()
Min Temperature 29 °F - - ()
Degree Days  
Heating Degree Days 14    
Moisture  
Dew Point 30 °F    
Average Humidity 47    
Maximum Humidity 91    
Minimum Humidity 12    
Precipitation  
Precipitation 0.00 in - - ()
Sea Level Pressure  
Sea Level Pressure 29.72 in    
Wind  
Wind Speed 19 mph ()    
Max Wind Speed 40 mph    
Max Gust Speed -    
T = Trace of Precipitation, MM = Missing Value Source: Averaged Metar Reports

Daily Weather History Graph

Daily Weather History Graph

Search for Another Location

Airport or City:

Trip Planner

Search our weather history database for the weather conditions in past years. The results will help you decide how hot, cold, wet, or windy it might be!

Date:

Astronomy

May. 18, 2013 Rise Set
Actual Time 5:22 AM MDT 11:08 PM MDT
Civil Twilight 4:07 AM MDT 12:24 AM MDT
Nautical Twilight Sun does not set Sun does not set
Astronomical Twilight Sun does not set Sun does not set
Moon 2:19 PM MDT (5/18) 3:22 AM MDT (5/18)
Length of Visible Light 20h 17m
Length of Day
17h 46m
First Quarter, 56% of the Moon is Illuminated
May 18
First Quarter
May 24
Full
May 31
Last Quarter
Jun 8
New
Jun 16
First Quarter

Hourly Weather History & Observations

Time (MDT) Temp. Windchill Dew Point Humidity Pressure Visibility Wind Dir Wind Speed Gust Speed Precip Events Conditions
12:00 AM 41 °F - 29 °F 50% 29.70 in - Calm Calm - -  
12:00 AM 41.4 °F 33.3 °F 28.8 °F 61% 29.70 in - North 16.1 mph - N/A   Unknown
1:00 AM 37.2 °F 27.3 °F 28.8 °F 71% 29.70 in - North 18.4 mph - N/A   Unknown
2:00 AM 34.2 °F 25.2 °F 28.0 °F 78% 29.71 in - North 12.7 mph - N/A   Unknown
3:00 AM 35.6 °F 25.5 °F 29.7 °F 79% 29.71 in - North 17.3 mph - N/A   Unknown
4:00 AM 35.8 °F 26.9 °F 29.7 °F 78% 29.71 in - North 13.8 mph - N/A   Unknown
5:00 AM 32.0 °F 18.1 °F 28.2 °F 86% 29.73 in - North 27.6 mph - N/A   Unknown
6:00 AM 30 °F - 28 °F 88% 29.75 in - Calm Calm - -  
6:00 AM 30.2 °F 14.3 °F 27.9 °F 91% 29.75 in - North 34.5 mph - N/A   Unknown
7:00 AM 35.1 °F 22.2 °F 30.6 °F 84% 29.75 in - North 27.6 mph - N/A   Unknown
8:00 AM 46.8 °F - 31.5 °F 55% 29.76 in - North 5.8 mph - N/A   Unknown
9:00 AM 51.6 °F - 30.0 °F 44% 29.76 in - North 26.5 mph - N/A   Unknown
10:00 AM 53.6 °F - 31.1 °F 42% 29.76 in - North 25.3 mph - N/A   Unknown
11:00 AM 59.0 °F - 30.7 °F 34% 29.75 in - North 40.3 mph - N/A   Unknown
12:00 PM 61 °F - 29 °F 19% 29.73 in - Calm Calm - -  
12:00 PM 61.2 °F - 29.3 °F 30% 29.73 in - North 28.8 mph - N/A   Unknown
1:00 PM 69.1 °F - 29.8 °F 23% 29.72 in - North 3.5 mph - N/A   Unknown
2:00 PM 68.4 °F - 29.1 °F 23% 29.72 in - North 29.9 mph - N/A   Unknown
3:00 PM 66.0 °F - 30.2 °F 26% 29.73 in - North 27.6 mph - N/A   Unknown
5:00 PM 71.2 °F - 31.1 °F 23% 29.71 in - North 27.6 mph - N/A   Unknown
6:00 PM 72 °F - 30 °F 12% 29.70 in - Calm Calm - -  
6:00 PM 71.6 °F - 30.2 °F 22% 29.70 in - North 31.1 mph - N/A   Unknown
7:00 PM 72.9 °F - 29.7 °F 20% 29.69 in - North 31.1 mph - N/A   Unknown
8:00 PM 68.2 °F - 31.5 °F 26% 29.69 in - North 31.1 mph - N/A   Unknown
9:00 PM 68.4 °F - 31.5 °F 25% 29.69 in - North 35.7 mph - N/A   Unknown
10:00 PM 66.6 °F - 30.6 °F 26% 29.70 in - North 33.4 mph - N/A   Unknown
11:00 PM 55.6 °F - 35.2 °F 46% 29.71 in - North 5.8 mph - N/A   Unknown